Location: Hermaringen
(48.5952°N, 10.2585°E)
Time: 05:36:37
(UTC+00:00)

Cosmos 1844 Rocket - Pass Details

Date: 18 November 2025
Orbit: 823 x 844 km, 71.0° (Epoch: 10 December)

Event Time Altitude Azimuth Distance (km) Brightness Sun altitude
Rises 16:09:54 0° 248° (WSW) 3,355 8.8 -5.9°
Reaches altitude 10° 16:12:46 10° 261° (W) 2,427 6.7 -6.3°
Maximum altitude 16:17:17 25° 316° (NW) 1,629 4.5 -7.0°
Drops below altitude 10° 16:21:50 10° 10° (N) 2,447 4.8 -7.7°
Sets 16:24:45 0° 24° (NNE) 3,389 5.4 -8.2°
